This is the latest recevied weather packets stored in our database for station/object T10BNorth. If no packets are shown the sender has not sent any weather packets the latest 10 day(s).
| Time | Temp. | Humidity | Pressure | Rain* | Wind** | Luminosity | Snow |
|---|---|---|---|---|---|---|---|
| 1778279949 | 8.33° C | 51% | 1007.9 hPa | 0 mm | - | 35 W/m² | - |
| 1778279887 | 8.33° C | 52% | 1007.9 hPa | 0 mm | - | 35 W/m² | - |
| 1778279827 | 8.33° C | 52% | 1008 hPa | 0 mm | - | 33 W/m² | - |
| 1778279768 | 8.33° C | 54% | 1008 hPa | 0 mm | - | 33 W/m² | - |
| 1778279697 | 8.33° C | 50% | 1008 hPa | 0 mm | - | 35 W/m² | - |
| 1778279637 | 8.33° C | 53% | 1008 hPa | 0 mm | - | 37 W/m² | - |
| 1778279577 | 8.33° C | 52% | 1008 hPa | 0 mm | - | 37 W/m² | - |
| 1778279539 | 8.33° C | 51% | 1008 hPa | 0 mm | - | 35 W/m² | - |
| 1778279518 | 8.33° C | 50% | 1008 hPa | 0 mm | - | 35 W/m² | - |
| 1778279393 | 8.33° C | 51% | 1007.9 hPa | 0 mm | - | 37 W/m² | - |
| 1778279332 | 8.33° C | 50% | 1008 hPa | 0 mm | - | 37 W/m² | - |
| 1778279270 | 8.33° C | 50% | 1007.9 hPa | 0 mm | - | 35 W/m² | - |
| 1778279233 | 8.33° C | 50% | 1007.9 hPa | 0 mm | - | 35 W/m² | - |
| 1778279212 | 8.33° C | 49% | 1007.9 hPa | 0 mm | - | 35 W/m² | - |
| 1778279081 | 8.33° C | 49% | 1007.9 hPa | 0 mm | - | 35 W/m² | - |
| 1778279022 | 8.89° C | 49% | 1007.9 hPa | 0 mm | - | 37 W/m² | - |
| 1778278962 | 8.89° C | 50% | 1007.8 hPa | 0 mm | - | 37 W/m² | - |
| 1778278901 | 8.89° C | 51% | 1007.8 hPa | 0 mm | - | 37 W/m² | - |
| 1778278846 | 8.89° C | 51% | 1007.9 hPa | 0 mm | - | 39 W/m² | - |
| 1778278770 | 8.89° C | 48% | 1007.8 hPa | 0 mm | - | 40 W/m² | - |
| 1778278707 | 8.89° C | 49% | 1007.9 hPa | 0 mm | - | 44 W/m² | - |
| 1778278648 | 8.89° C | 49% | 1007.8 hPa | 0 mm | - | 47 W/m² | - |
| 1778278586 | 8.89° C | 48% | 1007.8 hPa | 0 mm | - | 53 W/m² | - |
| 1778278532 | 8.89° C | 48% | 1007.8 hPa | 0 mm | - | 58 W/m² | - |
| 1778278469 | 8.89° C | 51% | 1007.8 hPa | 0 mm | - | 72 W/m² | - |
* Rain latest hour (hover to see other rain measurements)
** Current wind speed in m/s (hover to see current wind gust speed)